TimeCST,TemperatureF,Dew PointF,Humidity,Sea Level PressureIn,VisibilityMPH,Wind Direction,Wind SpeedMPH,Gust SpeedMPH,PrecipitationIn,Events,Conditions,WindDirDegrees,DateUTC
12:05 AM,24.8,24.8,100,29.53,10.0,West,10.4,-,N/A,,Clear,280,2014-01-11 06:05:00
12:25 AM,24.8,24.8,100,29.53,10.0,WNW,12.7,17.3,N/A,,Clear,290,2014-01-11 06:25:00
12:45 AM,24.8,24.8,100,29.53,10.0,West,11.5,-,N/A,,Clear,280,2014-01-11 06:45:00
1:05 AM,24.8,24.8,100,29.53,10.0,West,12.7,-,N/A,,Clear,280,2014-01-11 07:05:00
1:25 AM,24.8,24.8,100,29.52,10.0,West,10.4,-,N/A,,Clear,270,2014-01-11 07:25:00
1:45 AM,24.8,24.8,100,29.52,10.0,West,10.4,-,N/A,,Clear,270,2014-01-11 07:45:00
2:05 AM,24.8,24.8,100,29.53,10.0,West,10.4,-,N/A,,Clear,280,2014-01-11 08:05:00
2:25 AM,23.0,23.0,100,29.54,10.0,West,12.7,-,N/A,,Clear,280,2014-01-11 08:25:00
2:45 AM,24.8,24.8,100,29.54,10.0,WNW,12.7,20.7,N/A,,Clear,290,2014-01-11 08:45:00
3:05 AM,23.0,23.0,100,29.55,10.0,WNW,13.8,-,N/A,,Clear,290,2014-01-11 09:05:00
3:25 AM,23.0,23.0,100,29.55,10.0,NW,13.8,-,N/A,,Clear,310,2014-01-11 09:25:00
3:45 AM,23.0,23.0,100,29.56,10.0,NW,12.7,-,N/A,,Clear,310,2014-01-11 09:45:00
4:05 AM,21.2,21.2,100,29.57,10.0,NW,12.7,-,N/A,,Clear,310,2014-01-11 10:05:00
4:25 AM,19.4,19.4,100,29.58,10.0,NW,15.0,21.9,N/A,,Clear,310,2014-01-11 10:25:00
4:45 AM,19.4,19.4,100,29.59,10.0,WNW,13.8,-,N/A,,Clear,300,2014-01-11 10:45:00
5:05 AM,19.4,19.4,100,29.59,10.0,NW,17.3,21.9,N/A,,Clear,310,2014-01-11 11:05:00
5:25 AM,19.4,19.4,100,29.60,10.0,NW,20.7,-,N/A,,Clear,320,2014-01-11 11:25:00
5:45 AM,17.6,17.6,100,29.60,10.0,NW,19.6,25.3,N/A,,Clear,320,2014-01-11 11:45:00
6:05 AM,19.4,19.4,100,29.61,10.0,NW,19.6,28.8,N/A,,Mostly Cloudy,320,2014-01-11 12:05:00
6:25 AM,19.4,19.4,100,29.62,9.0,NW,19.6,-,N/A,,Overcast,320,2014-01-11 12:25:00
6:45 AM,21.2,21.2,100,29.63,1.8,NW,19.6,25.3,N/A,,Overcast,320,2014-01-11 12:45:00
7:05 AM,23.0,23.0,100,29.64,7.0,NW,20.7,25.3,N/A,,Overcast,320,2014-01-11 13:05:00
7:25 AM,23.0,23.0,100,29.64,4.0,NNW,19.6,26.5,N/A,Rain,Freezing Rain,330,2014-01-11 13:25:00
7:45 AM,23.0,23.0,100,29.65,2.0,NNW,20.7,29.9,N/A,Snow,Light Snow,330,2014-01-11 13:45:00
8:05 AM,23.0,23.0,100,29.66,2.5,NW,20.7,26.5,N/A,,Overcast,320,2014-01-11 14:05:00
8:25 AM,23.0,23.0,100,29.67,3.0,NW,19.6,24.2,N/A,Rain,Freezing Rain,320,2014-01-11 14:25:00
8:45 AM,23.0,23.0,100,29.68,4.0,NW,18.4,23.0,N/A,Rain,Freezing Rain,310,2014-01-11 14:45:00
9:05 AM,23.0,23.0,100,29.69,2.5,NW,19.6,24.2,N/A,,Overcast,310,2014-01-11 15:05:00
9:25 AM,24.8,24.8,100,29.70,1.0,NW,20.7,25.3,N/A,,Overcast,310,2014-01-11 15:25:00
9:45 AM,24.8,24.8,100,29.71,0.8,NW,23.0,28.8,N/A,Rain,Freezing Rain,310,2014-01-11 15:45:00
10:05 AM,24.8,24.8,100,29.71,1.0,NW,21.9,28.8,N/A,Snow,Light Snow,310,2014-01-11 16:05:00
10:25 AM,24.8,24.8,100,29.72,1.2,NW,23.0,27.6,0.01,Snow,Light Snow,310,2014-01-11 16:25:00
10:45 AM,24.8,24.8,100,29.73,1.0,WNW,19.6,-,0.03,Snow,Light Snow,300,2014-01-11 16:45:00
11:05 AM,24.8,24.8,100,29.73,2.0,NW,19.6,24.2,N/A,Snow,Light Snow,310,2014-01-11 17:05:00
11:25 AM,24.8,24.8,100,29.73,2.0,WNW,20.7,-,N/A,Rain,Freezing Rain,300,2014-01-11 17:25:00
11:45 AM,24.8,24.8,100,29.73,2.0,WNW,17.3,25.3,0.01,Snow,Light Snow,300,2014-01-11 17:45:00
12:05 PM,24.8,24.8,100,29.72,4.0,WNW,17.3,-,N/A,Snow,Light Snow,300,2014-01-11 18:05:00
12:25 PM,24.8,24.8,100,29.72,5.0,WNW,12.7,-,N/A,,Overcast,300,2014-01-11 18:25:00
12:45 PM,24.8,24.8,100,29.71,10.0,WNW,17.3,-,N/A,,Overcast,300,2014-01-11 18:45:00
1:05 PM,24.8,24.8,100,29.71,10.0,West,13.8,-,N/A,,Mostly Cloudy,280,2014-01-11 19:05:00
1:25 PM,26.6,26.6,100,29.70,10.0,WNW,12.7,-,N/A,,Scattered Clouds,290,2014-01-11 19:25:00
1:45 PM,26.6,26.6,100,29.70,10.0,West,10.4,-,N/A,,Clear,280,2014-01-11 19:45:00
2:05 PM,26.6,26.6,100,29.70,10.0,West,12.7,16.1,N/A,,Clear,270,2014-01-11 20:05:00
2:25 PM,26.6,26.6,100,29.70,10.0,West,10.4,-,N/A,,Clear,270,2014-01-11 20:25:00
2:45 PM,28.4,28.4,100,29.69,10.0,West,11.5,-,N/A,,Clear,270,2014-01-11 20:45:00
3:05 PM,28.4,28.4,100,29.69,10.0,West,10.4,-,N/A,,Clear,280,2014-01-11 21:05:00
3:25 PM,28.4,28.4,100,29.68,10.0,West,9.2,-,N/A,,Clear,280,2014-01-11 21:25:00
3:45 PM,28.4,28.4,100,29.68,10.0,WSW,10.4,-,N/A,,Clear,250,2014-01-11 21:45:00
4:05 PM,28.4,28.4,100,29.69,10.0,WSW,11.5,-,N/A,,Clear,240,2014-01-11 22:05:00
4:25 PM,28.4,28.4,100,29.69,10.0,SW,10.4,-,N/A,,Clear,230,2014-01-11 22:25:00
4:45 PM,26.6,26.6,100,29.69,10.0,SW,8.1,-,N/A,,Clear,220,2014-01-11 22:45:00
5:05 PM,26.6,26.6,100,29.68,10.0,SSW,8.1,-,N/A,,Clear,210,2014-01-11 23:05:00
5:25 PM,24.8,24.8,100,29.67,10.0,SW,6.9,-,N/A,,Clear,220,2014-01-11 23:25:00
5:45 PM,24.8,24.8,100,29.67,10.0,SW,8.1,-,N/A,,Clear,220,2014-01-11 23:45:00
6:05 PM,24.8,24.8,100,29.66,10.0,SSW,6.9,-,N/A,,Clear,210,2014-01-12 00:05:00
6:25 PM,23.0,23.0,100,29.65,10.0,SSW,8.1,-,N/A,,Clear,200,2014-01-12 00:25:00
6:45 PM,23.0,23.0,100,29.64,10.0,South,8.1,-,N/A,,Clear,170,2014-01-12 00:45:00
7:05 PM,23.0,23.0,100,29.64,10.0,South,10.4,-,N/A,,Clear,170,2014-01-12 01:05:00
7:25 PM,21.2,21.2,100,29.64,10.0,South,11.5,-,N/A,,Clear,180,2014-01-12 01:25:00
7:45 PM,19.4,19.4,100,29.64,10.0,South,10.4,-,N/A,,Clear,180,2014-01-12 01:45:00
8:05 PM,19.4,19.4,100,29.63,10.0,South,10.4,-,N/A,,Clear,180,2014-01-12 02:05:00
8:25 PM,23.0,23.0,100,29.62,10.0,South,9.2,-,N/A,,Clear,170,2014-01-12 02:25:00
8:45 PM,23.0,23.0,100,29.61,10.0,South,8.1,-,N/A,,Clear,170,2014-01-12 02:45:00
9:05 PM,23.0,23.0,100,29.61,10.0,SSE,10.4,-,N/A,,Clear,160,2014-01-12 03:05:00
9:25 PM,23.0,23.0,100,29.60,10.0,SSE,10.4,-,N/A,,Clear,160,2014-01-12 03:25:00
9:45 PM,23.0,23.0,100,29.59,10.0,South,9.2,-,N/A,,Clear,180,2014-01-12 03:45:00
10:05 PM,24.8,24.8,100,29.56,10.0,South,11.5,16.1,N/A,,Clear,170,2014-01-12 04:05:00
10:25 PM,24.8,24.8,100,29.54,10.0,South,13.8,-,N/A,,Clear,170,2014-01-12 04:25:00
10:45 PM,26.6,26.6,100,29.52,10.0,South,16.1,20.7,N/A,,Clear,170,2014-01-12 04:45:00
11:05 PM,26.6,26.6,100,29.50,10.0,South,19.6,-,N/A,,Clear,170,2014-01-12 05:05:00
11:25 PM,28.4,26.6,93,29.48,10.0,SSE,18.4,-,N/A,,Clear,160,2014-01-12 05:25:00
11:45 PM,28.4,26.6,93,29.46,10.0,SSE,16.1,20.7,N/A,,Clear,160,2014-01-12 05:45:00